Regional Weather Roundup
Issued by NWS

Home | Current Version | Previous Version | Graphics & Text | Print | Product List | Glossary Off
Versions: 1 2 3 4 5 6 7 8 9 10 11 12 13 14 15 16 17 18 19 20 21 22 23 24 25 26 27 28 29 30 31 32 33 34 35 36 37 38 39 40 41 42 43 44 45 46 47 48 49 50

543
ASUS43 KDMX 250701
RWRIA

WEATHER ROUNDUP FOR IOWA
NATIONAL WEATHER SERVICE DES MOINES IA
200 AM CDT SUN JUN 25 2017

NOTE: "FAIR" INDICATES FEW OR NO CLOUDS BELOW 12,000 FEET WITH NO
SIGNIFICANT WEATHER AND/OR OBSTRUCTIONS TO VISIBILITY.

* - THESE STATIONS ARE NOT NWS STATIONS...THUS NOT UNDER NWS
QUALITY CONTROL.  THEY ALSO DO NOT REPORT WEATHER SUCH
AS PRECIPITATION OR FOG.

IAZ001>003-012>014-020>022-031>034-043>046-250800-
   NORTHWEST IOWA

CITY           SKY/WX    TMP DP  RH WIND       PRES   REMARKS
CARROLL *      PTCLDY    50  43  76 W6        30.20S
CHEROKEE *     CLEAR     51  42  71 NW3       30.22S
DENISON *      CLEAR     50  43  76 CALM      30.23S
LE MARS *      PTCLDY    50  43  76 W3        30.24S
ORANGE CITY *  PTCLDY    48  45  87 NW6       30.22S
SHELDON *      PTCLDY    50  43  76 NW8       30.20S
SIOUX CITY     PTCLDY    53  42  66 W6        30.25R
SPENCER        CLEAR     47  43  86 NW9       30.19S
STORM LAKE *   PTCLDY    50  43  76 W9        30.21S
$$

IAZ055>058-069>071-079>083-090>094-250800-
   SOUTHWEST IOWA

CITY           SKY/WX    TMP DP  RH WIND       PRES   REMARKS
ATLANTIC *     CLEAR     50  46  87 S3        30.21S
AUDUBON *      CLEAR     50  45  81 CALM      30.22S
CLARINDA *     PTCLDY    54  52  94 CALM      30.23R
COUNCIL BLFS * PTCLDY    57  43  58 N8        30.22S
CRESTON *      CLEAR     57  45  62 N6        30.21S
HARLAN  *      CLEAR     52  45  76 CALM      30.25R
LAMONI         PTCLDY    57  45  64 N7        30.19R
RED OAK *      PTCLDY    52  48  87 N3        30.22R
SHENANDOAH *   PTCLDY    54  50  87 CALM      30.22R
$$

IAZ047>049-059>061-072>074-084-250800-
   CENTRAL IOWA

CITY           SKY/WX    TMP DP  RH WIND       PRES   REMARKS
AMES           CLEAR     51  46  83 W5        30.17S
ANKENY *       CLEAR     50  48  93 CALM      30.18S
BOONE *        PTCLDY    55  43  62 W9        30.17S
CHARITON *     CLEAR     54  48  82 W6        30.18R
DES MOINES     PTCLDY    57  46  66 NW6       30.17S
GRINNELL*      CLEAR     52  46  79 NW3       30.17S
KNOXVILLE *    CLEAR     55  46  71 W6        30.16S
MARSHALLTOWN   CLEAR     50  46  86 W5        30.15S
NEWTON *       CLEAR     54  45  71 NW6       30.16S
PELLA *        CLEAR     54  46  73 NW6       30.18S
PERRY *          N/A     49  46  88 W7        30.19S
$$

IAZ004>006-015-016-023>025-035-036-250800-
   NORTH CENTRAL IOWA

CITY           SKY/WX    TMP DP  RH WIND       PRES   REMARKS
ALGONA *       PTCLDY    50  45  81 W6        30.17S
CLARION *        N/A     50  46  87 NW6       30.16S
ESTHERVILLE    CLEAR     48  46  93 W7        30.17S
FORT DODGE *   PTCLDY    50  39  66 CALM      30.19S
MASON CITY     CLEAR     49  42  77 W10       30.16R
FOREST CITY *    N/A     52  37  58 NW8       30.15S
WEBSTER CITY * PTCLDY    50  45  81 W9        30.16R
IOWA FALLS *     N/A     51  45  79 W7        30.17S
$$

IAZ007>011-017>019-026>030-037>042-050>054-066-250800-
   NORTHEAST IOWA

CITY           SKY/WX    TMP DP  RH WIND       PRES   REMARKS
CEDAR RAPIDS   CLEAR     50  46  86 NW6       30.12S
CHARLES CITY * CLEAR     52  48  87 W7        30.12F
CLINTON *      CLEAR     52  51  97 W7        30.11S
DECORAH *      CLEAR     50  46  87 CALM      30.09S
DUBUQUE        CLEAR     52  50  93 W9        30.10S
MONTICELLO *   CLEAR     52  50  93 CALM      30.11S
OELWEIN *      CLEAR     50  46  87 W7        30.12S
WATERLOO       CLEAR     51  45  79 W8        30.12S
$$

IAZ064-065-067-068-078-250800-
   EAST CENTRAL IOWA

CITY           SKY/WX    TMP DP  RH WIND       PRES   REMARKS
DAVENPORT      PTCLDY    54  51  90 W5        30.12S
IOWA CITY      CLEAR     53  46  77 W6        30.14S
MT. PLEASANT * CLEAR     56  45  65 W3        30.14S
MUSCATINE *    CLEAR     55  50  82 W3        30.13S
QUAD CITIES    CLEAR     54  50  86 S3        30.11S
$$

IAZ062-063-075>077-085>089-095>099-250800-
   SOUTHEAST IOWA

CITY           SKY/WX    TMP DP  RH WIND       PRES   REMARKS
BURLINGTON     CLEAR     59  46  62 NW3       30.13S
FAIRFIELD *    CLEAR     57  43  58 W6        30.14S
FORT MADISON * CLEAR     57  48  72 NW5       30.15R
KEOKUK *       MOCLDY    57  48  72 NW5       30.14R
OSKALOOSA *      N/A     52  45  76 NW6       30.16S
OTTUMWA        CLEAR     50  45  83 W6        30.15S
WASHINGTON *   CLEAR     54  46  76 NW7       30.15R
$$

ABBREVIATIONS USED IN REMARKS
   TC - TEMPERATURES IN CELSIUS
  WCI - WIND CHILL INDEX
   HX - HEAT INDEX
  VSB - VISIBILITY
$$





USA.gov is the U.S. government's official web portal to all federal, state and local government web resources and services.